Location: Contre
(49.7477°N, 2.0963°E)
Time: 19:49:26
(UTC+00:00)

Envisat - Visible Passes

Search period start: 28 February 2024 00:00
Search period end: 09 March 2024 00:00
Orbit: 762 x 764 km, 98.3° (Epoch: 28 February)

Date Brightness Start Highest point End Pass type
(mag) Time Alt. Az. Time Alt. Az. Time Alt. Az.
28 Feb 3.9 03:17:47 10° NNE 03:21:27 46° NE 03:21:27 46° NE visible
28 Feb 4.3 04:57:38 10° N 05:01:22 21° WNW 05:01:37 21° WNW visible
29 Feb 4.8 02:40:47 10° NNE 02:43:51 28° ENE 02:43:51 28° ENE visible
29 Feb 3.6 04:19:44 10° N 04:24:02 38° NW 04:24:02 38° NW visible
01 Mar 5.6 02:04:26 10° NE 02:06:15 15° ENE 02:06:15 15° ENE visible
01 Mar 3.2 03:42:11 10° NNE 03:46:26 61° N 03:46:26 61° N visible
01 Mar 4.7 05:22:49 10° NNW 05:25:26 14° NW 05:26:36 13° WNW visible
02 Mar 3.9 03:04:56 10° NNE 03:08:50 45° ENE 03:08:50 45° ENE visible
02 Mar 4.0 04:44:28 10° N 04:48:36 26° WNW 04:49:01 25° WNW visible
03 Mar 5.0 02:28:06 10° NE 02:31:14 25° ENE 02:31:14 25° ENE visible
03 Mar 3.2 04:06:42 10° N 04:11:25 48° WNW 04:11:25 48° WNW visible
04 Mar 5.7 01:52:14 10° ENE 01:53:39 13° ENE 01:53:39 13° ENE visible
04 Mar 3.1 03:29:16 10° NNE 03:33:50 72° NNE 03:33:50 72° NNE visible
04 Mar 4.5 05:09:27 10° NNW 05:12:43 17° NW 05:14:00 16° WNW visible
05 Mar 4.1 02:52:08 10° NNE 02:56:14 40° ENE 02:56:14 40° ENE visible
05 Mar 3.7 04:31:22 10° N 04:35:49 31° WNW 04:36:24 31° WNW visible
06 Mar 5.2 02:15:30 10° NE 02:18:38 21° E 02:18:38 21° E visible
06 Mar 3.0 03:53:43 10° N 03:58:44 61° WNW 03:58:48 61° WNW visible
06 Mar 4.9 05:35:01 10° NNW 05:36:44 12° NW 05:38:26 10° WNW visible
07 Mar 3.2 03:16:22 10° NNE 03:21:13 67° E 03:21:13 67° E visible
07 Mar 4.3 04:56:12 10° N 04:59:57 21° WNW 05:01:23 19° W visible
08 Mar 4.4 02:39:22 10° NNE 02:43:37 33° E 02:43:37 33° E visible
08 Mar 3.5 04:18:18 10° N 04:23:01 39° WNW 04:23:48 36° W visible
